Location: NJAA Observatory
(40.6819°N, 74.8979°W)
Time: 20:50:59
(UTC-04:00)

S-56A Canister/Altair - Visible Passes

Search period start: 22 July 2017 00:00
Search period end: 01 August 2017 00:00
Orbit: 637 x 2497 km, 38.9° (Epoch: 22 July)

Date Brightness Start Highest point End Pass type
(mag) Time Alt. Az. Time Alt. Az. Time Alt. Az.
22 Jul 9.2 00:10:36 10° W 00:19:35 64° SSW 00:25:05 37° SE visible
22 Jul 10.1 02:15:16 10° W 02:39:05 - SSE 02:22:19 32° SW visible
22 Jul11.304:36:49SSW04:36:49SSW04:19:33Wvisible
22 Jul 8.6 21:34:51 10° W 21:41:38 80° S 21:52:14 10° E visible
22 Jul 9.1 23:38:16 10° W 23:46:41 67° SSW 23:52:13 36° SE visible
23 Jul 10.0 01:42:36 10° W 01:49:32 34° SW 01:49:32 34° SW visible
23 Jul11.404:08:55S04:08:55S03:46:49Wvisible
23 Jul 8.5 21:02:42 10° W 21:09:01 79° S 21:18:48 10° E visible
23 Jul 8.9 23:05:59 10° W 23:13:50 69° SSW 23:19:57 31° ESE visible
24 Jul 9.8 01:10:02 10° W 01:17:17 38° SW 01:17:17 38° SW visible
24 Jul 8.8 22:33:44 10° W 22:41:05 71° SSW 22:48:00 25° ESE visible
25 Jul 9.6 00:37:34 10° W 00:45:21 41° SW 00:45:21 41° SW visible
25 Jul 8.6 22:01:32 10° W 22:08:23 73° S 22:16:15 19° ESE visible
26 Jul 9.4 00:05:09 10° W 00:13:12 44° SSW 00:13:37 44° SSW visible
26 Jul 8.5 21:29:21 10° W 21:35:45 75° S 21:44:39 13° ESE visible
26 Jul 9.3 23:32:49 10° W 23:40:25 46° SSW 23:42:01 43° S visible
27 Jul 10.8 01:38:26 10° W 01:39:23 12° WSW 01:39:23 12° WSW visible
27 Jul 8.4 20:57:13 10° W 21:03:11 76° S 21:12:19 10° ESE visible
27 Jul 9.1 23:00:32 10° W 23:07:41 49° SSW 23:10:32 39° SSE visible
28 Jul 10.5 01:05:39 10° W 01:07:55 16° WSW 01:07:55 16° WSW visible
28 Jul 8.9 22:28:18 10° W 22:35:00 51° SSW 22:39:08 32° SE visible
29 Jul 10.3 00:32:59 10° W 00:36:31 20° WSW 00:36:31 20° WSW visible
29 Jul 8.8 21:56:06 10° W 22:02:24 53° SSW 22:07:49 25° SE visible
30 Jul 10.1 00:00:26 10° W 00:05:13 24° SW 00:05:13 24° SW visible
30 Jul 8.6 21:23:56 10° W 21:29:50 56° SSW 21:36:35 17° SE visible
30 Jul 9.8 23:27:59 10° W 23:33:59 26° SSW 23:33:59 26° SSW visible
31 Jul 8.4 20:51:47 10° W 20:57:21 58° SSW 21:05:25 10° ESE visible
31 Jul 9.7 22:55:37 10° W 23:01:33 28° SSW 23:02:49 27° SSW visible
